Tracking 18945 objects as of 21-Jan-2018
HD Live streaming from Space Station
objects crossing your sky now

SL-24 R/B

Track SL-24 R/B now!
10-day predictions


NORAD ID: 27610
Int'l Code: 2002-058F
Perigee: 601.8 km
Apogee: 1,008.5 km
Inclination: 64.6 °
Period: 100.8 minutes
Semi major axis: 7176 km
RCS: 7.1875 m2 (large)
Launch date: December 20, 2002
Source: Commonwealth of Independent States (former USSR) (CIS)
Launch site: TYURATAM MISSILE AND SPACE COMPLEX (TTMTR)

Note: This is a ROCKET BODY
aabbcc
Your satellite tracking list
Your tracking list is empty




NASA's NSSDC Master Catalog

Two Line Element Set (TLE):
1 27610U 02058F   18020.62811858 -.00000090 +00000-0 +10093-4 0  9998
2 27610 064.5576 244.3130 0283378 154.0148 244.8008 14.28122960786431
Source of the keplerian elements: AFSPC